When you browse on this site, cookies collect data to enhance your experience and personalize the content and advertising you see.
Visit our Privacy Policy to learn more. By continuing to use the site, you agree to this use of cookies and data.
  • In Austria
  • List of Countries
  • For 7 days
  • Water Temperature
  • Weather Map
  • News
  • Weather Widgets
  • user-avatar
    Login

    Hourly Weather Mikashevichi

    Today, 20 August, Tuesday

    Time Temperature Precipitation Wind Pressure Humidity
    00:00 +20°C° 0.5 mm 2 mps 752 mmHg 84%
    01:00 +20°C° 0.5 mm 2 mps 752 mmHg 86%
    02:00 +20°C° 0 mm 1 mps 752 mmHg 87%
    03:00 +20°C° 0.1 mm 1 mps 753 mmHg 88%
    04:00 +20°C° 0.1 mm 1 mps 753 mmHg 89%
    05:00 +19°C° 0.1 mm 1 mps 753 mmHg 90%
    06:00 +20°C° 0.1 mm 1 mps 753 mmHg 87%
    07:00 +22°C° 0.1 mm 1 mps 753 mmHg 84%
    08:00 +23°C° 0 mm 1 mps 754 mmHg 84%
    09:00 +25°C° 0 mm 1 mps 754 mmHg 77%
    10:00 +27°C° 0 mm 1 mps 754 mmHg 70%
    11:00 +28°C° 0 mm 1 mps 754 mmHg 64%
    12:00 +29°C° 0 mm 1 mps 754 mmHg 61%
    13:00 +30°C° 0 mm 1 mps 754 mmHg 58%
    14:00 +31°C° 0 mm 2 mps 754 mmHg 56%
    15:00 +30°C° 0.3 mm 2 mps 754 mmHg 61%
    16:00 +30°C° 0.3 mm 2 mps 754 mmHg 66%
    17:00 +29°C° 0.3 mm 2 mps 754 mmHg 71%
    18:00 +27°C° 0.4 mm 2 mps 754 mmHg 77%
    19:00 +26°C° 0.4 mm 2 mps 754 mmHg 83%
    20:00 +24°C° 0.4 mm 2 mps 755 mmHg 89%
    21:00 +23°C° 0.2 mm 1 mps 754 mmHg 90%
    22:00 +23°C° 0.2 mm 1 mps 754 mmHg 91%
    23:00 +22°C° 0.2 mm 1 mps 754 mmHg 92%

    Tomorrow, 21 August, Wednesday

    Time Temperature Precipitation Wind Pressure Humidity
    00:00 +22°C° 0.2 mm 1 mps 754 mmHg 92%
    01:00 +22°C° 0.2 mm 1 mps 754 mmHg 92%
    02:00 +21°C° 0.2 mm 1 mps 754 mmHg 92%
    03:00 +20°C° 0 mm 2 mps 754 mmHg 91%
    04:00 +19°C° 0 mm 2 mps 754 mmHg 90%
    05:00 +19°C° 0 mm 2 mps 754 mmHg 89%
    06:00 +20°C° 0 mm 3 mps 754 mmHg 84%
    07:00 +21°C° 0 mm 3 mps 754 mmHg 79%
    08:00 +22°C° 0 mm 3 mps 754 mmHg 75%
    09:00 +25°C° 0 mm 3 mps 754 mmHg 67%
    10:00 +27°C° 0 mm 4 mps 754 mmHg 59%
    11:00 +29°C° 0 mm 4 mps 754 mmHg 51%
    12:00 +30°C° 0 mm 4 mps 753 mmHg 49%
    13:00 +32°C° 0 mm 4 mps 753 mmHg 46%
    14:00 +33°C° 0 mm 4 mps 753 mmHg 44%
    15:00 +31°C° 0 mm 3 mps 753 mmHg 48%
    16:00 +31°C° 0 mm 3 mps 753 mmHg 52%
    17:00 +31°C° 0 mm 2 mps 753 mmHg 56%
    18:00 +28°C° 0.1 mm 3 mps 753 mmHg 67%
    19:00 +25°C° 0.1 mm 4 mps 753 mmHg 78%
    20:00 +22°C° 0.1 mm 5 mps 754 mmHg 88%
    21:00 +20°C° 0.2 mm 5 mps 754 mmHg 89%
    22:00 +19°C° 0.2 mm 5 mps 754 mmHg 90%
    23:00 +18°C° 0.2 mm 4 mps 755 mmHg 90%

    Day after tomorrow, 22 August, Thursday

    Time Temperature Precipitation Wind Pressure Humidity
    00:00 +17°C° 0.2 mm 4 mps 755 mmHg 90%
    01:00 +17°C° 0.2 mm 4 mps 756 mmHg 89%
    02:00 +15°C° 0.2 mm 4 mps 756 mmHg 89%
    03:00 +15°C° 0 mm 4 mps 756 mmHg 88%
    04:00 +15°C° 0 mm 4 mps 756 mmHg 88%
    05:00 +14°C° 0 mm 4 mps 756 mmHg 87%
    06:00 +15°C° 0 mm 4 mps 757 mmHg 85%
    07:00 +15°C° 0 mm 4 mps 757 mmHg 84%
    08:00 +15°C° 0 mm 4 mps 758 mmHg 82%
    09:00 +18°C° 0 mm 4 mps 758 mmHg 77%
    10:00 +19°C° 0 mm 4 mps 758 mmHg 72%
    11:00 +20°C° 0 mm 4 mps 758 mmHg 67%
    12:00 +21°C° 0 mm 4 mps 758 mmHg 63%
    13:00 +22°C° 0 mm 4 mps 758 mmHg 59%
    14:00 +23°C° 0 mm 4 mps 758 mmHg 56%
    15:00 +23°C° 0 mm 4 mps 758 mmHg 58%
    16:00 +22°C° 0 mm 4 mps 758 mmHg 60%
    17:00 +22°C° 0 mm 3 mps 758 mmHg 62%
    18:00 +21°C° 0 mm 3 mps 758 mmHg 68%
    19:00 +19°C° 0 mm 3 mps 758 mmHg 73%
    20:00 +17°C° 0 mm 3 mps 758 mmHg 79%
    21:00 +16°C° 0 mm 3 mps 758 mmHg 80%
    22:00 +16°C° 0 mm 3 mps 759 mmHg 81%
    23:00 +15°C° 0 mm 2 mps 759 mmHg 82%

    23 August, Friday

    Time Temperature Precipitation Wind Pressure Humidity
    00:00 +14°C° 0 mm 2 mps 759 mmHg 84%
    01:00 +14°C° 0 mm 2 mps 759 mmHg 85%
    02:00 +13°C° 0 mm 2 mps 759 mmHg 87%
    03:00 +13°C° 0 mm 2 mps 759 mmHg 88%
    04:00 +12°C° 0 mm 2 mps 759 mmHg 88%
    05:00 +12°C° 0 mm 2 mps 759 mmHg 89%
    06:00 +14°C° 0 mm 2 mps 759 mmHg 84%
    07:00 +15°C° 0 mm 2 mps 759 mmHg 78%
    08:00 +17°C° 0 mm 2 mps 759 mmHg 73%
    09:00 +18°C° 0 mm 2 mps 759 mmHg 66%
    10:00 +20°C° 0 mm 2 mps 759 mmHg 59%
    11:00 +23°C° 0 mm 2 mps 759 mmHg 52%
    12:00 +23°C° 0 mm 2 mps 759 mmHg 50%
    13:00 +24°C° 0 mm 3 mps 759 mmHg 48%
    14:00 +24°C° 0 mm 3 mps 759 mmHg 46%
    15:00 +24°C° 0 mm 3 mps 759 mmHg 49%
    16:00 +24°C° 0 mm 2 mps 759 mmHg 53%
    17:00 +23°C° 0 mm 2 mps 758 mmHg 56%
    18:00 +20°C° 0 mm 2 mps 758 mmHg 62%
    19:00 +18°C° 0 mm 2 mps 759 mmHg 67%
    20:00 +16°C° 0 mm 2 mps 759 mmHg 73%
    21:00 +16°C° 0 mm 2 mps 759 mmHg 76%
    22:00 +15°C° 0 mm 2 mps 759 mmHg 79%
    23:00 +14°C° 0 mm 1 mps 759 mmHg 81%

    24 August, Saturday

    Time Temperature Precipitation Wind Pressure Humidity
    00:00 +14°C° 0 mm 1 mps 759 mmHg 83%
    01:00 +13°C° 0 mm 1 mps 759 mmHg 85%
    02:00 +13°C° 0 mm 1 mps 759 mmHg 87%
    03:00 +13°C° 0 mm 1 mps 759 mmHg 88%
    04:00 +13°C° 0 mm 1 mps 759 mmHg 89%
    05:00 +12°C° 0 mm 1 mps 759 mmHg 89%
    06:00 +14°C° 0 mm 1 mps 759 mmHg 84%
    07:00 +16°C° 0 mm 1 mps 759 mmHg 78%
    08:00 +19°C° 0 mm 1 mps 759 mmHg 72%
    09:00 +19°C° 0 mm 2 mps 759 mmHg 66%
    10:00 +21°C° 0 mm 2 mps 759 mmHg 59%
    11:00 +24°C° 0 mm 2 mps 759 mmHg 52%
    12:00 +24°C° 0 mm 2 mps 758 mmHg 49%
    13:00 +25°C° 0 mm 1 mps 758 mmHg 45%
    14:00 +26°C° 0 mm 1 mps 757 mmHg 42%
    15:00 +26°C° 0 mm 1 mps 757 mmHg 45%
    16:00 +26°C° 0 mm 1 mps 757 mmHg 48%
    17:00 +25°C° 0 mm 1 mps 756 mmHg 51%
    18:00 +23°C° 0 mm 1 mps 756 mmHg 56%
    19:00 +21°C° 0 mm 1 mps 756 mmHg 61%
    20:00 +18°C° 0 mm 1 mps 756 mmHg 67%
    21:00 +18°C° 0 mm 1 mps 756 mmHg 68%
    22:00 +16°C° 0 mm 1 mps 756 mmHg 70%
    23:00 +15°C° 0 mm 1 mps 756 mmHg 71%

    25 August, Sunday

    Time Temperature Precipitation Wind Pressure Humidity
    00:00 +15°C° 0 mm 1 mps 756 mmHg 72%
    01:00 +15°C° 0 mm 1 mps 756 mmHg 73%
    02:00 +14°C° 0 mm 1 mps 756 mmHg 74%
    03:00 +14°C° 0 mm 1 mps 756 mmHg 74%
    04:00 +14°C° 0 mm 1 mps 755 mmHg 75%
    05:00 +13°C° 0 mm 1 mps 755 mmHg 76%
    06:00 +15°C° 0 mm 1 mps 755 mmHg 72%
    07:00 +18°C° 0 mm 1 mps 755 mmHg 68%
    08:00 +17°C° 0 mm 0 mps 756 mmHg 64%
    09:00 +21°C° 0 mm 1 mps 756 mmHg 59%
    10:00 +23°C° 0 mm 1 mps 756 mmHg 55%
    11:00 +25°C° 0 mm 1 mps 756 mmHg 50%
    12:00 +26°C° 0 mm 1 mps 756 mmHg 47%
    13:00 +26°C° 0 mm 1 mps 756 mmHg 45%
    14:00 +27°C° 0 mm 1 mps 756 mmHg 42%
    15:00 +27°C° 0 mm 1 mps 755 mmHg 45%
    16:00 +26°C° 0 mm 1 mps 755 mmHg 49%
    17:00 +26°C° 0 mm 2 mps 755 mmHg 53%
    18:00 +24°C° 0 mm 2 mps 755 mmHg 58%
    19:00 +21°C° 0 mm 2 mps 756 mmHg 64%
    20:00 +18°C° 0 mm 2 mps 756 mmHg 69%
    21:00 +18°C° 0 mm 2 mps 756 mmHg 71%
    22:00 +17°C° 0 mm 2 mps 756 mmHg 73%
    23:00 +16°C° 0 mm 2 mps 756 mmHg 75%
    Show more